Waarnemingen

Advertentie
Mijn weer
Vidsel, Zweden (2154): temperatuur & dauwpunt: 09.12.2017 15:00:00 - 15.12.2017 15:00:00 (CET)Vidsel, Zweden (2154): windsnelheid & windstoten: 09.12.2017 15:00:00 - 15.12.2017 15:00:00 (CET)Vidsel, Zweden (2154): windrichting: 09.12.2017 15:00:00 - 15.12.2017 15:00:00 (CET)Vidsel, Zweden (2154): luchtdruk: 09.12.2017 15:00:00 - 15.12.2017 15:00:00 (CET)Vidsel, Zweden (2154): zicht: 09.12.2017 15:00:00 - 15.12.2017 15:00:00 (CET)Vidsel, Zweden (2154): neerslag: 09.12.2017 15:00:00 - 15.12.2017 15:00:00 (CET)
Datum & Tijd tt [°C] td [°C] ff [km/u] ff [kn] fx [km/u] fx [kn] dd ppp [hPa] vv [km] rr [mm]
15.12.2017 15:00:00 -7,0 -8,0 2 1 - - WZW - 5 -
15.12.2017 14:00:00 -7,1 -7,9 0 0 4 2 N 995,9 4,4 0,2
15.12.2017 13:00:00 -7,3 -8,1 4 2 4 2 W 995,6 2,4 0,2
15.12.2017 12:00:00 -7,6 -8,4 5 3 7 4 WNW 995,4 10 0,0
15.12.2017 11:00:00 -8,1 -8,9 4 2 4 2 WNW 995,3 10 0,0
15.12.2017 10:00:00 -8,4 -9,3 0 0 4 2 N 995,2 10 0,0
15.12.2017 09:00:00 -8,4 -9,3 4 2 4 2 W 995,1 10 0,0
15.12.2017 08:00:00 -8,6 -9,5 2 1 4 2 WNW 994,8 10 0,0
15.12.2017 07:00:00 -8,9 -9,8 0 0 4 2 N 994,4 10 0,0
15.12.2017 06:00:00 -9,1 -10,0 0 0 4 2 N 994,1 10 0,0
15.12.2017 05:00:00 -9,2 -10,1 0 0 4 2 N 993,8 10 0,0
15.12.2017 04:00:00 -9,4 -10,5 2 1 4 2 NW 993,5 10 0,0
15.12.2017 03:00:00 -9,9 -11,0 2 1 4 2 WNW 993,3 10 0,0
15.12.2017 02:00:00 -10,4 -11,4 0 0 0 0 N 993,1 1,2 0,5
15.12.2017 01:00:00 -10,7 -11,9 0 0 4 2 N 992,9 1,3 0,5
15.12.2017 00:00:00 -11,1 -12,3 0 0 4 2 N 992,8 4,6 0,0
14.12.2017 23:00:00 -11,4 -12,6 0 0 4 2 N 992,8 2,9 0,3
14.12.2017 22:00:00 -11,7 -12,9 0 0 4 2 N 992,5 2,7 0,3
14.12.2017 21:00:00 -12,0 -13,3 2 1 4 2 WNW 992,3 5 0,1
14.12.2017 20:00:00 -12,6 -13,9 0 0 0 0 N 992,0 5 0,1
14.12.2017 19:00:00 -13,0 -14,2 0 0 0 0 N 991,9 4,7 0,2
14.12.2017 18:00:00 -13,4 -14,8 0 0 4 2 N 991,7 2,4 0,4
14.12.2017 17:00:00 -13,8 -15,2 2 1 4 2 WNW 991,5 2,2 0,4
14.12.2017 16:00:00 -14,1 -15,7 0 0 4 2 N 991,4 2,6 0,3
14.12.2017 15:00:00 -14,6 -16,1 0 0 4 2 N 991,4 2,3 0,3
14.12.2017 14:00:00 -15,1 -16,6 0 0 4 2 N 991,4 1,7 0,2
14.12.2017 13:00:00 -16,1 -17,8 2 1 7 4 W 991,3 2,5 0,3
14.12.2017 12:00:00 -17,4 -19,2 2 1 7 4 - 991,6 10 0,0
14.12.2017 11:00:00 -19,3 -21,3 2 1 7 4 - 991,3 10 0,0
14.12.2017 10:00:00 -21,0 -23,0 4 2 11 6 - 990,6 10 0,0
14.12.2017 09:00:00 -24,3 -26,8 4 2 7 4 - 990,6 10 0,0
14.12.2017 08:00:00 -24,1 -26,6 5 3 7 4 W 990,1 10 0,0
14.12.2017 07:00:00 -23,5 -25,7 2 1 7 4 - 989,8 10 0,0
14.12.2017 06:00:00 -22,9 -25,3 2 1 4 2 - 989,4 10 0,0
14.12.2017 05:00:00 -23,5 -25,8 2 1 4 2 W 988,7 10 0,0
14.12.2017 04:00:00 -23,5 -26,0 4 2 7 4 - 988,4 10 0,0
14.12.2017 03:00:00 -23,0 -25,4 0 0 7 4 N 988,1 10 0,0
14.12.2017 02:00:00 -20,9 -22,8 5 3 7 4 WNW 987,5 10 0,0
14.12.2017 01:00:00 -21,4 -23,6 4 2 7 4 WNW 987,3 10 0,0
14.12.2017 00:00:00 -22,1 -24,3 0 0 7 4 N 986,8 10 0,0
13.12.2017 23:00:00 -22,0 -24,2 4 2 7 4 W 986,5 10 0,0
13.12.2017 22:00:00 -22,1 -24,3 2 1 7 4 - 985,8 10 0,0
13.12.2017 21:00:00 -20,8 -22,8 4 2 4 2 - 985,6 10 0,0
13.12.2017 20:00:00 -19,8 -21,7 4 2 4 2 - 985,6 10 0,0
13.12.2017 19:00:00 -17,5 -19,0 5 3 7 4 NNW 985,2 10 0,0
13.12.2017 18:00:00 -16,9 -18,4 5 3 7 4 W 984,9 10 0,0
13.12.2017 17:00:00 -17,5 -19,1 2 1 7 4 WNW 984,7 10 0,0
13.12.2017 16:00:00 -17,6 -19,3 4 2 7 4 WNW 984,5 10 0,0
13.12.2017 15:00:00 -13,8 -14,9 4 2 7 4 WNW 984,2 10 0,0
13.12.2017 14:00:00 -13,0 -13,8 4 2 7 4 - 984,0 10 0,0
13.12.2017 13:00:00 -12,9 -14,7 4 2 11 6 - 983,9 10 0,0
13.12.2017 12:00:00 -10,9 -12,1 5 3 14 8 NW 983,7 10 0,0
13.12.2017 11:00:00 -9,5 -11,3 5 3 14 8 W 983,7 10 0,0
13.12.2017 10:00:00 -9,4 -11,3 5 3 22 12 WNW 983,6 10 0,0
13.12.2017 09:00:00 -8,4 -10,0 11 6 25 14 NW 983,2 10 0,0
13.12.2017 08:00:00 -6,4 -8,4 15 8 25 14 W 982,8 10 0,0
13.12.2017 07:00:00 -5,5 -7,5 18 10 29 16 WNW 982,7 10 0,0
13.12.2017 06:00:00 -5,0 -7,1 24 13 32 18 NW 982,5 10 0,0
13.12.2017 05:00:00 -5,1 -6,9 21 11 25 14 NW 982,8 10 0,0
13.12.2017 04:00:00 -5,1 -6,6 18 10 29 16 NW 983,0 10 0,0
13.12.2017 03:00:00 -5,1 -6,6 21 11 29 16 NW 983,5 10 0,0
13.12.2017 02:00:00 -5,2 -6,6 18 10 29 16 NW 984,1 10 0,0
13.12.2017 01:00:00 -5,2 -6,3 21 11 29 16 NW 984,6 8 0,1
13.12.2017 00:00:00 -5,2 -6,2 21 11 25 14 NNW 985,6 10 0,1
12.12.2017 23:00:00 -4,8 -5,8 16 9 25 14 NNW 986,6 6 0,0
12.12.2017 22:00:00 -4,7 -5,5 18 10 25 14 NNW 987,6 4,9 0,0
12.12.2017 21:00:00 -4,6 -5,4 16 9 25 14 N 988,7 10 0,0
12.12.2017 20:00:00 -4,7 -5,2 11 6 22 12 NNW 990,0 6 0,1
12.12.2017 19:00:00 -4,6 -5,3 15 8 22 12 N 991,3 5 0,1
12.12.2017 18:00:00 -4,5 -5,2 11 6 22 12 N 992,6 10 0,0
12.12.2017 17:00:00 -4,3 -4,8 4 2 11 6 NNW 993,5 7 0,1
12.12.2017 16:00:00 -4,1 -4,6 5 3 14 8 N 994,5 10 0,5
12.12.2017 15:00:00 -3,5 -4,0 9 5 14 8 NO 995,4 2,3 0,5
12.12.2017 14:00:00 -3,4 -3,8 8 4 11 6 NO 996,1 3,8 0,3
12.12.2017 13:00:00 -3,2 -3,6 4 2 11 6 ONO 997,2 2,2 0,3
12.12.2017 12:00:00 -3,2 -3,6 8 4 14 8 O 998,1 7 0,2
12.12.2017 11:00:00 -2,8 -3,2 11 6 18 10 O 998,7 2,2 0,2
12.12.2017 10:00:00 -2,6 -2,9 8 4 11 6 O 999,3 3,0 0,2
12.12.2017 09:00:00 -2,7 -3,0 8 4 11 6 O 999,8 5 0,1
12.12.2017 08:00:00 -4,0 -4,4 0 0 4 2 N 1000,2 9 0,4
12.12.2017 07:00:00 -3,7 -4,1 2 1 4 2 - 1000,5 2,6 0,1
12.12.2017 06:00:00 -4,0 -4,4 2 1 7 4 - 1000,9 7 0,0
12.12.2017 05:00:00 -3,5 -3,9 8 4 11 6 OZO 1001,4 10 0,0
12.12.2017 04:00:00 -2,9 -3,3 8 4 14 8 OZO 1001,7 10 0,0
12.12.2017 03:00:00 -2,8 -3,1 5 3 7 4 OZO 1001,9 10 0,0
12.12.2017 02:00:00 -2,6 -2,9 4 2 7 4 O 1002,0 4,6 0,3
12.12.2017 01:00:00 -3,5 -3,8 4 2 4 2 OZO 1002,2 6 0,2
12.12.2017 00:00:00 -3,5 -3,9 0 0 4 2 N 1002,4 9 0,0
11.12.2017 23:00:00 -3,5 -3,8 4 2 4 2 WNW 1002,5 10 0,0
11.12.2017 22:00:00 -3,5 -3,9 2 1 4 2 W 1002,7 5 0,2
11.12.2017 21:00:00 -3,5 -3,9 2 1 7 4 - 1002,6 1,4 0,4
11.12.2017 20:00:00 -3,8 -4,1 4 2 7 4 - 1002,6 10 0,0
11.12.2017 19:00:00 -3,3 -3,6 4 2 7 4 ZZO 1002,6 10 0,0
11.12.2017 18:00:00 -2,9 -3,2 4 2 7 4 Z 1002,3 10 0,0
11.12.2017 17:00:00 -3,2 -3,5 8 4 7 4 OZO 1001,8 10 0,0
11.12.2017 16:00:00 -2,3 -2,6 2 1 7 4 - 1001,2 10 0,0
11.12.2017 15:00:00 -2,3 -2,6 5 3 11 6 ZO 1000,6 10 0,0
11.12.2017 14:00:00 -2,3 -2,6 4 2 11 6 ZO 1000,0 10 0,0
11.12.2017 13:00:00 -2,0 -2,1 8 4 11 6 OZO 999,8 10 0,0
11.12.2017 12:00:00 -1,5 -1,6 5 3 11 6 OZO 999,6 10 0,0
11.12.2017 11:00:00 -1,7 -2,0 8 4 11 6 O 999,2 10 0,0
11.12.2017 10:00:00 -1,4 -1,8 8 4 14 8 OZO 998,7 10 0,0
11.12.2017 09:00:00 -1,7 -1,8 8 4 11 6 OZO 998,0 10 0,0
11.12.2017 08:00:00 -1,6 -1,7 8 4 14 8 O 997,4 10 0,0
11.12.2017 07:00:00 -1,4 -1,7 8 4 14 8 ZO 996,9 10 0,0
11.12.2017 06:00:00 -1,3 -1,6 9 5 14 8 O 996,4 10 0,0
11.12.2017 05:00:00 -1,2 -1,5 9 5 14 8 O 996,0 10 0,0
11.12.2017 04:00:00 -1,3 -1,4 8 4 14 8 OZO 995,7 7 0,1
11.12.2017 03:00:00 -1,2 -1,3 8 4 14 8 O 995,4 9 0,0
11.12.2017 02:00:00 -1,2 -1,5 11 6 14 8 O 995,2 1,6 0,6
11.12.2017 01:00:00 -1,2 -1,5 9 5 18 10 OZO 995,1 9 0,3
11.12.2017 00:00:00 -1,1 -1,4 13 7 22 12 OZO 994,9 10 0,0
10.12.2017 23:00:00 -1,0 -1,3 15 8 22 12 OZO 994,9 5 0,5
10.12.2017 22:00:00 -1,1 -1,4 15 8 22 12 OZO 994,7 2,6 0,2
10.12.2017 21:00:00 -1,0 -1,3 15 8 22 12 O 994,6 3,9 0,0
10.12.2017 20:00:00 -0,8 -1,1 13 7 22 12 OZO 994,4 6 0,0
10.12.2017 19:00:00 -0,7 -1,0 15 8 22 12 OZO 994,2 8 0,1
10.12.2017 18:00:00 -0,6 -0,9 13 7 22 12 OZO 994,1 1,7 0,3
10.12.2017 17:00:00 -0,4 -0,7 13 7 25 14 ZO 994,1 3,9 0,1
10.12.2017 16:00:00 -0,1 -0,7 18 10 29 16 ZO 993,6 10 0,0
10.12.2017 15:00:00 -0,1 -0,4 16 9 29 16 ZO 993,4 7 0,0
10.12.2017 14:00:00 -0,2 -0,3 15 8 22 12 OZO 993,2 2,3 0,2
10.12.2017 13:00:00 0,0 -0,3 15 8 22 12 OZO 993,2 4,2 0,2
10.12.2017 12:00:00 0,2 -0,1 13 7 18 10 OZO 993,0 10 0,2
10.12.2017 11:00:00 0,2 -0,1 11 6 22 12 O 992,9 5 0,0
10.12.2017 10:00:00 0,2 -0,4 15 8 22 12 OZO 992,8 10 0,0
10.12.2017 09:00:00 0,0 -0,1 13 7 18 10 O 992,2 7 0,2
10.12.2017 08:00:00 0,1 -0,2 11 6 14 8 OZO 991,7 4,2 0,2
10.12.2017 07:00:00 0,2 -0,4 11 6 22 12 OZO 991,1 10 0,0
10.12.2017 06:00:00 0,3 -0,1 15 8 22 12 OZO 990,8 6 0,0
10.12.2017 05:00:00 0,5 0,1 11 6 22 12 OZO 990,5 10 0,1
10.12.2017 04:00:00 0,5 0,1 11 6 25 14 OZO 990,5 9 0,0
10.12.2017 03:00:00 0,0 0,0 13 7 - - O - 6 -
10.12.2017 02:00:00 0,4 0,1 15 8 22 12 OZO 990,0 10 0,0
10.12.2017 01:00:00 0,3 0,0 16 9 22 12 OZO 989,9 8 0,0
10.12.2017 00:00:00 0,3 0,2 13 7 22 12 OZO 989,9 10 0,0
09.12.2017 23:00:00 0,2 -0,1 13 7 18 10 OZO 989,7 9 0,1
09.12.2017 22:00:00 0,3 0,0 13 7 22 12 OZO 989,4 10 0,0
09.12.2017 21:00:00 0,4 0,1 13 7 18 10 ZO 988,9 7 0,0
09.12.2017 20:00:00 0,3 0,0 13 7 18 10 OZO 988,6 10 0,0
09.12.2017 19:00:00 0,3 0,0 11 6 18 10 O 988,3 9 0,0
09.12.2017 18:00:00 0,2 0,1 13 7 18 10 OZO 988,1 10 0,0
09.12.2017 17:00:00 0,2 0,1 11 6 18 10 OZO 987,7 6 0,3
09.12.2017 16:00:00 0,2 0,1 11 6 22 12 OZO 987,4 5 0,3
09.12.2017 15:00:00 0,2 0,1 16 9 25 14 OZO 987,1 10 0,0

tt = temperatuur
td = dauwpunt
ff = windsnelheid
fx = windstoten
dd = windrichting
ppp = luchtdruk
vv = zicht
rr = neerslag

Weerstations in de omgeving